Location: Molino di Ancona
(43.6167°N, 13.3667°E)
Time: 04:31:42
(UTC+00:00)

Helios 1A Rocket - Pass Details

Date: 15 December 2019
Orbit: 564 x 587 km, 98.3° (Epoch: 22 January)

Event Time Altitude Azimuth Distance (km) Brightness Sun altitude
Rises 05:27:30 0° 5° (N) 2,771 6.2 -11.3°
Reaches altitude 10° 05:29:46 10° 356° (N) 1,868 5.3 -11.0°
Maximum altitude 05:33:28 36° 290° (WNW) 914 3.4 -10.3°
Drops below altitude 10° 05:37:08 10° 224° (SW) 1,855 5.3 -9.7°
Sets 05:39:22 0° 216° (SW) 2,748 6.3 -9.4°
